Time,TemperatureF,DewpointF,PressureIn,WindDirection,WindDirectionDegrees,WindSpeedMPH,WindSpeedGustMPH,Humidity,HourlyPrecipIn,Conditions,Clouds,dailyrainin,SoftwareType,DateUTC
2013-10-10 00:02:00,47.0,46.0,-100.00,South,180,1.0,1.0,98,-99.99,,,-99.99,,2013-10-10 07:02:00,
2013-10-10 00:42:00,47.0,46.0,-100.00,South,180,0.0,1.0,98,-99.99,,,-99.99,,2013-10-10 07:42:00,
2013-10-10 01:22:00,46.0,46.0,-100.00,East,90,1.0,3.0,98,-99.99,,,-99.99,,2013-10-10 08:22:00,
2013-10-10 01:32:00,46.0,46.0,-100.00,East,90,1.0,3.0,98,-99.99,,,-99.99,,2013-10-10 08:32:00,
2013-10-10 03:42:00,47.0,46.0,-100.00,East,90,1.0,2.0,98,-99.99,,,-99.99,,2013-10-10 10:42:00,
2013-10-10 03:53:00,46.0,45.0,-100.00,SE,135,1.0,2.0,97,-99.99,,,-99.99,,2013-10-10 10:53:00,
2013-10-10 04:02:00,46.0,45.0,-100.00,SE,135,1.0,2.0,97,-99.99,,,-99.99,,2013-10-10 11:02:00,
2013-10-10 04:42:00,46.0,45.0,-100.00,South,180,1.0,2.0,97,-99.99,,,-99.99,,2013-10-10 11:42:00,
2013-10-10 04:56:00,46.0,45.0,-100.00,NW,315,0.0,1.0,97,-99.99,,,-99.99,,2013-10-10 11:56:00,
2013-10-10 05:11:00,46.0,45.0,-100.00,North,0,0.0,1.0,97,-99.99,,,-99.99,,2013-10-10 12:11:00,
2013-10-10 05:41:00,47.0,45.0,-100.00,West,270,1.0,6.0,92,-99.99,,,-99.99,,2013-10-10 12:41:00,
2013-10-10 06:42:00,48.0,45.0,-100.00,SW,225,2.0,4.0,91,-99.99,,,-99.99,,2013-10-10 13:42:00,
2013-10-10 07:42:00,49.0,45.0,-100.00,SW,225,3.0,6.0,87,-99.99,,,-99.99,,2013-10-10 14:42:00,
2013-10-10 08:43:00,50.0,46.0,-100.00,SW,225,6.0,9.0,86,-99.99,,,-99.99,,2013-10-10 15:43:00,
2013-10-10 09:13:00,50.0,46.0,-100.00,SW,225,4.0,11.0,83,-99.99,,,-99.99,,2013-10-10 16:13:00,
2013-10-10 09:23:00,51.0,46.0,-100.00,SW,225,4.0,10.0,82,-99.99,,,-99.99,,2013-10-10 16:23:00,
2013-10-10 09:33:00,51.0,46.0,-100.00,SW,225,4.0,10.0,82,-99.99,,,-99.99,,2013-10-10 16:33:00,
2013-10-10 10:23:00,52.0,46.0,-100.00,SW,225,8.0,12.0,79,-99.99,,,-99.99,,2013-10-10 17:23:00,
2013-10-10 10:32:00,52.0,46.0,-100.00,SW,225,8.0,12.0,79,-99.99,,,-99.99,,2013-10-10 17:32:00,
2013-10-10 11:12:00,54.0,46.0,-100.00,SW,225,5.0,12.0,75,-99.99,,,-99.99,,2013-10-10 18:12:00,
2013-10-10 12:11:00,55.0,46.0,-100.00,SW,225,4.0,10.0,71,-99.99,,,-99.99,,2013-10-10 19:11:00,
2013-10-10 12:21:00,56.0,46.0,-100.00,SW,225,6.0,11.0,68,-99.99,,,-99.99,,2013-10-10 19:21:00,
2013-10-10 12:42:00,55.0,46.0,-100.00,SW,225,7.0,14.0,70,-99.99,,,-99.99,,2013-10-10 19:42:00,
2013-10-10 13:22:00,56.0,45.0,-100.00,SW,225,5.0,13.0,65,-99.99,,,-99.99,,2013-10-10 20:22:00,
2013-10-10 13:32:00,56.0,45.0,-100.00,SW,225,5.0,13.0,65,-99.99,,,-99.99,,2013-10-10 20:32:00,
2013-10-10 13:34:00,58.0,46.0,-100.00,SW,225,5.0,9.0,64,-99.99,,,-99.99,,2013-10-10 20:34:00,
2013-10-10 14:21:00,58.0,46.0,-100.00,SW,225,5.0,9.0,64,-99.99,,,-99.99,,2013-10-10 21:21:00,
2013-10-10 16:12:00,58.0,46.0,-100.00,SW,225,3.0,9.0,65,-99.99,,,-99.99,,2013-10-10 23:12:00,
2013-10-10 16:23:00,58.0,47.0,-100.00,SW,225,4.0,13.0,66,-99.99,,,-99.99,,2013-10-10 23:23:00,
2013-10-10 16:43:00,58.0,47.0,-100.00,SW,225,2.0,6.0,66,-99.99,,,-99.99,,2013-10-10 23:43:00,
2013-10-10 17:42:00,56.0,47.0,-100.00,SW,225,4.0,9.0,72,-99.99,,,-99.99,,2013-10-11 00:42:00,
2013-10-10 18:11:00,55.0,48.0,-100.00,SW,225,3.0,8.0,76,-99.99,,,-99.99,,2013-10-11 01:11:00,
2013-10-10 18:52:00,55.0,48.0,-100.00,South,180,3.0,6.0,78,-99.99,,,-99.99,,2013-10-11 01:52:00,
2013-10-10 19:12:00,55.0,49.0,-100.00,South,180,1.0,4.0,80,-99.99,,,-99.99,,2013-10-11 02:12:00,
2013-10-10 21:43:00,53.0,49.0,-100.00,South,180,3.0,8.0,85,-99.99,,,-99.99,,2013-10-11 04:43:00,
2013-10-10 22:13:00,53.0,50.0,-100.00,South,180,1.0,3.0,89,-99.99,,,-99.99,,2013-10-11 05:13:00,
2013-10-10 22:43:00,52.0,50.0,-100.00,SW,225,2.0,6.0,92,-99.99,,,-99.99,,2013-10-11 05:43:00,
2013-10-10 22:52:00,52.0,50.0,-100.00,South,180,4.0,6.0,92,-99.99,,,-99.99,,2013-10-11 05:52:00,
2013-10-10 23:02:00,52.0,50.0,-100.00,South,180,4.0,6.0,92,-99.99,,,-99.99,,2013-10-11 06:02:00,
2013-10-10 23:42:00,52.0,50.0,-100.00,SE,135,1.0,4.0,91,-99.99,,,-99.99,,2013-10-11 06:42:00,